Location: Burgwalden
(48.2830°N, 10.7576°E)
Time: 01:34:41
(UTC+00:00)

Cosmos 2322 Rocket - Pass Details

Date: 26 September 2023
Orbit: 831 x 852 km, 71.0° (Epoch: 04 December)

Event Time Altitude Azimuth Distance (km) Brightness Sun altitude
Rises 03:43:09 0° 325° (NW) 3,398 5.1 -14.9°
Reaches altitude 10° 03:45:49 10° 316° (NW) 2,462 4.3 -14.4°
Maximum altitude 03:50:44 32° 255° (WSW) 1,418 2.8 -13.7°
Drops below altitude 10° 03:55:39 10° 194° (SSW) 2,460 4.4 -12.9°
Sets 03:58:20 0° 185° (S) 3,393 5.2 -12.4°
